DeLand, FL

12:22 AM EDT on June 26, 2017 (GMT -0400)
De Land Municipal-Taylor

Weather History for KDED - April, 2014

Change the Weather History Date:

Wednesday, April 16, 2014

  Actual Average Record
Temperature  
Mean Temperature 58 °F -  
Max Temperature 68 °F 81 °F 84 °F (2015)
Min Temperature 48 °F 56 °F 48 °F (2014)
Degree Days  
Heating Degree Days 7    
Growing Degree Days 8 (Base 50)    
Moisture  
Dew Point 49 °F    
Average Humidity 76    
Maximum Humidity 82    
Minimum Humidity 64    
Precipitation  
Precipitation 0.00 in - - ()
Sea Level Pressure  
Sea Level Pressure 30.12 in    
Wind  
Wind Speed 9 mph (North)    
Max Wind Speed 16 mph    
Max Gust Speed 22 mph    
Visibility 10 miles    
Events      
Averages and records for this station are not official NWS values.
T = Trace of Precipitation, MM = Missing Value Source: NWS Daily Summary

Daily Weather History Graph

Daily Weather History Graph

Search for Another Location

Airport or City:

Trip Planner

Search our weather history database for the weather conditions in past years. The results will help you decide how hot, cold, wet, or windy it might be!

Date:

Astronomy

Apr. 16, 2014 Rise Set
Actual Time 6:58 AM EDT 7:52 PM EDT
Civil Twilight 6:33 AM EDT 8:16 PM EDT
Nautical Twilight 6:05 AM EDT 8:45 PM EDT
Astronomical Twilight 5:35 AM EDT 9:14 PM EDT
Moon 9:27 PM EDT (4/16) 7:49 AM EDT (4/16)
Length of Visible Light 13h 42m
Length of Day
12h 53m
Full, 98% of the Moon is Illuminated
Apr 16
Full
Apr 22
Last Quarter
Apr 29
New
May 6
First Quarter
May 14
Full

Hourly Weather History & Observations

Time (EDT) Temp. Dew Point Humidity Pressure Visibility Wind Dir Wind Speed Gust Speed Precip Events Conditions
12:35 AM 59.0 °F 53.6 °F 82% 30.01 in 10.0 mi NNW 9.2 mph - N/A   Mostly Cloudy
2:15 AM 53.6 °F 48.2 °F 82% 30.01 in 10.0 mi NNW 9.2 mph - N/A   Partly Cloudy
3:55 AM 53.6 °F 44.6 °F 72% 30.05 in 10.0 mi NNW 11.5 mph - N/A   Overcast
4:15 AM 50.0 °F 44.6 °F 82% 30.05 in 10.0 mi North 11.5 mph - N/A   Mostly Cloudy
4:35 AM 50.0 °F 42.8 °F 76% 30.06 in 10.0 mi North 10.4 mph - N/A   Mostly Cloudy
4:55 AM 50.0 °F 42.8 °F 76% 30.07 in 10.0 mi NNW 10.4 mph - N/A   Mostly Cloudy
5:15 AM 48.2 °F 41.0 °F 76% 30.09 in 10.0 mi North 8.1 mph 17.3 mph N/A   Scattered Clouds
5:35 AM 48.2 °F 41.0 °F 76% 30.09 in 10.0 mi North 9.2 mph - N/A   Partly Cloudy
5:55 AM 48.2 °F 41.0 °F 76% 30.09 in 10.0 mi NNW 9.2 mph - N/A   Mostly Cloudy
6:15 AM 48.2 °F 41.0 °F 76% 30.09 in 10.0 mi NNW 8.1 mph - N/A   Overcast
6:35 AM 48.2 °F 41.0 °F 76% 30.10 in 10.0 mi NNW 9.2 mph - N/A   Overcast
7:55 AM 48.2 °F 41.0 °F 76% 30.12 in 10.0 mi NNW 9.2 mph - N/A   Clear
9:15 AM 53.6 °F 44.6 °F 72% 30.14 in 10.0 mi North 6.9 mph - N/A   Clear
11:55 AM 68.0 °F 55.4 °F 64% 30.17 in 10.0 mi NNE 12.7 mph 17.3 mph N/A   Mostly Cloudy
3:35 PM 68.0 °F 55.4 °F 64% 30.14 in 10.0 mi NE 11.5 mph 18.4 mph N/A   Mostly Cloudy
4:15 PM 68.0 °F 55.4 °F 64% 30.14 in 10.0 mi NNE 16.1 mph 21.9 mph N/A   Mostly Cloudy
7:55 PM 64.4 °F 57.2 °F 77% 30.16 in 8.0 mi NNW 8.1 mph - N/A   Scattered Clouds
8:15 PM 64.4 °F 57.2 °F 77% 30.16 in 10.0 mi North 6.9 mph - N/A   Mostly Cloudy
8:55 PM 62.6 °F 57.2 °F 82% 30.17 in 10.0 mi North 8.1 mph - N/A   Scattered Clouds
9:15 PM 62.6 °F 57.2 °F 82% 30.17 in 10.0 mi North 4.6 mph - N/A   Mostly Cloudy
9:35 PM 62.6 °F 57.2 °F 82% 30.18 in 10.0 mi North 4.6 mph - N/A   Mostly Cloudy
9:55 PM 62.6 °F 57.2 °F 82% 30.18 in 10.0 mi North 4.6 mph - N/A   Mostly Cloudy
11:35 PM 62.6 °F 55.4 °F 77% 30.19 in 10.0 mi North 4.6 mph - N/A   Clear
11:55 PM 60.8 °F 55.4 °F 82% 30.19 in 10.0 mi Calm Calm - N/A   Clear